Location: South Troy
(42.7009°N, 73.6726°W)
Time: 15:23:11
(UTC+00:00)

Cosmos 1980 - Pass Details

Date: 20 September 2024
Orbit: 837 x 847 km, 71.0° (Epoch: 08 October)

Event Time Altitude Azimuth Distance (km) Brightness Sun altitude
Rises 23:15:43 0° 206° (SSW) 3,389 7.1 -4.7°
Reaches altitude 10° 23:18:09 10° 208° (SSW) 2,459 6.4 -5.2°
Maximum altitude 23:23:49 79° 295° (WNW) 866 3.9 -6.2°
Drops below altitude 10° 23:29:31 10° 22° (NNE) 2,479 6.0 -7.2°
Sets 23:31:59 0° 24° (NNE) 3,418 6.7 -7.7°
